ICS-EF (ISS DEB) (45265 NORAD) Tracking and Keplerian Element Data

This shows tracking and keplerian element data for the satellite.

Feedback or suggestion? Click here.




ElementValue
Catalog45265
NameICS-EF (ISS DEB)
Epoch Orbit17246
Epoch Day62.69931512
Epoch Year2023
RAAN61.6577
Inclination51.6211
Eccentricity0.0005279
Argument of Perigee75.6543
Mean Anonmoly284.5054
Mean Motion16.03740816
Decay Rate0.00479816
L11 45265U 98067RJ 23062.69931512 .00479816 11640-3 73542-3 0 9995
L22 45265 51.6211 61.6577 0005279 75.6543 284.5054 16.03740816172469



Live tracking and technical data element details for ICS-EF (ISS DEB) (NORAD 45265). ICS-EF (ISS DEB) can be tracked NOW for your location showing map with azimuth and elevation plus other details from your city location.







IsCatalogInMostPopularTable: catalog: 45265, numindb: 25700
Update: records affected: 1



GetName: 45265 ICS-EF (ISS DEB)

Hit Count: updated at: Wed, 04 Dec 2024 22:06:21 GMT